This is the latest recevied weather packets stored in our database for station/object HB9TJM-8. If no packets are shown the sender has not sent any weather packets the latest 10 day(s).
| Time | Temp. | Humidity | Pressure | Rain* | Wind** | Luminosity | Snow |
|---|---|---|---|---|---|---|---|
| 1777100662 | 15° C | 41% | 1019 hPa | 0 mm | - | 306 W/m² | - |
| 1777100048 | 14.44° C | 39% | 1019 hPa | 0 mm | - | 268 W/m² | - |
| 1777099741 | 15° C | 37% | 1019.2 hPa | 0 mm | - | 254 W/m² | - |
| 1777099433 | 15° C | 38% | 1018.6 hPa | 0 mm | - | 241 W/m² | - |
| 1777098817 | 14.44° C | 37% | 1018.9 hPa | 0 mm | - | 210 W/m² | - |
| 1777098510 | 14.44° C | 37% | 1019 hPa | 0 mm | - | 194 W/m² | - |
| 1777098202 | 14.44° C | 40% | 1018.6 hPa | 0 mm | - | 180 W/m² | - |
| 1777097894 | 14.44° C | 38% | 1019.1 hPa | 0 mm | - | 163 W/m² | - |
| 1777097587 | 14.44° C | 36% | 1018.7 hPa | 0 mm | - | 145 W/m² | - |
| 1777097587 | 14.44° C | 36% | 1018.7 hPa | 0 mm | - | 145 W/m² | - |
| 1777097279 | 13.89° C | 41% | 1019 hPa | 0 mm | - | 121 W/m² | - |
| 1777096971 | 13.89° C | 39% | 1018.6 hPa | 0 mm | - | 93 W/m² | - |
| 1777096664 | 13.89° C | 37% | 1018.7 hPa | 0 mm | - | 75 W/m² | - |
| 1777096356 | 14.44° C | 39% | 1018.6 hPa | 0 mm | - | 67 W/m² | - |
| 1777096049 | 13.89° C | 39% | 1018.6 hPa | 0 mm | - | 60 W/m² | - |
| 1777095741 | 12.78° C | 39% | 1018.9 hPa | 0 mm | - | 55 W/m² | - |
| 1777095434 | 13.33° C | 39% | 1018.9 hPa | 0 mm | - | 51 W/m² | - |
| 1777095127 | 12.78° C | 40% | 1019 hPa | 0 mm | - | 47 W/m² | - |
| 1777094820 | 12.78° C | 38% | 1018.9 hPa | 0 mm | - | 44 W/m² | - |
| 1777094513 | 12.22° C | 40% | 1018.7 hPa | 0 mm | - | 40 W/m² | - |
| 1777094512 | 12.22° C | 40% | 1018.7 hPa | 0 mm | - | 40 W/m² | - |
| 1777094205 | 11.67° C | 42% | 1019 hPa | 0 mm | - | 36 W/m² | - |
| 1777093897 | 11.67° C | 41% | 1018.7 hPa | 0 mm | - | 32 W/m² | - |
| 1777093590 | 10.56° C | 44% | 1018.6 hPa | 0 mm | - | 28 W/m² | - |
| 1777093590 | 10.56° C | 44% | 1018.6 hPa | 0 mm | - | 28 W/m² | - |
* Rain latest hour (hover to see other rain measurements)
** Current wind speed in m/s (hover to see current wind gust speed)